TimeCDT,TemperatureF,Dew PointF,Humidity,Sea Level PressureIn,VisibilityMPH,Wind Direction,Wind SpeedMPH,Gust SpeedMPH,PrecipitationIn,Events,Conditions,WindDirDegrees,DateUTC
12:15 AM,48.2,42.8,82,30.07,10.0,West,4.6,-,N/A,,Clear,270,2014-05-15 05:15:00
12:35 AM,48.2,42.8,82,30.07,10.0,West,4.6,-,N/A,,Clear,280,2014-05-15 05:35:00
12:55 AM,48.2,42.8,82,30.06,10.0,WNW,4.6,-,N/A,,Clear,300,2014-05-15 05:55:00
1:15 AM,48.2,42.8,82,30.05,10.0,West,4.6,-,N/A,,Clear,280,2014-05-15 06:15:00
1:35 AM,48.2,42.8,82,30.05,10.0,WNW,4.6,-,N/A,,Clear,290,2014-05-15 06:35:00
1:55 AM,48.2,42.8,82,30.05,10.0,WNW,4.6,-,N/A,,Scattered Clouds,300,2014-05-15 06:55:00
2:15 AM,48.2,42.8,82,30.04,10.0,WNW,5.8,-,N/A,,Scattered Clouds,290,2014-05-15 07:15:00
2:35 AM,48.2,42.8,82,30.03,10.0,WNW,4.6,-,N/A,,Scattered Clouds,290,2014-05-15 07:35:00
2:55 AM,48.2,42.8,82,30.03,10.0,West,4.6,-,N/A,,Scattered Clouds,280,2014-05-15 07:55:00
3:15 AM,48.2,42.8,82,30.02,10.0,WNW,6.9,-,N/A,,Mostly Cloudy,290,2014-05-15 08:15:00
3:35 AM,48.2,41.0,76,30.02,10.0,WNW,8.1,-,N/A,,Mostly Cloudy,300,2014-05-15 08:35:00
3:55 AM,48.2,41.0,76,30.01,10.0,WNW,9.2,-,N/A,,Scattered Clouds,300,2014-05-15 08:55:00
4:15 AM,48.2,42.8,82,30.01,10.0,NW,9.2,-,N/A,,Clear,310,2014-05-15 09:15:00
4:35 AM,46.4,42.8,87,30.01,10.0,NW,6.9,-,N/A,,Clear,310,2014-05-15 09:35:00
4:55 AM,46.4,42.8,87,30.01,10.0,WNW,6.9,-,N/A,,Clear,300,2014-05-15 09:55:00
5:15 AM,46.4,42.8,87,30.01,10.0,WNW,8.1,-,N/A,,Clear,290,2014-05-15 10:15:00
5:35 AM,46.4,42.8,87,30.02,10.0,WNW,10.4,-,N/A,,Clear,290,2014-05-15 10:35:00
5:55 AM,46.4,42.8,87,30.02,10.0,WNW,12.7,17.3,N/A,,Clear,300,2014-05-15 10:55:00
6:15 AM,46.4,44.6,93,30.02,10.0,WNW,9.2,-,N/A,,Clear,290,2014-05-15 11:15:00
6:35 AM,46.4,44.6,93,30.03,10.0,WNW,11.5,-,N/A,,Clear,300,2014-05-15 11:35:00
6:55 AM,46.4,44.6,93,30.03,10.0,WNW,12.7,17.3,N/A,,Clear,300,2014-05-15 11:55:00
7:15 AM,46.4,42.8,87,30.03,10.0,NW,10.4,-,N/A,,Clear,310,2014-05-15 12:15:00
7:35 AM,46.4,42.8,87,30.03,10.0,NW,10.4,-,N/A,,Scattered Clouds,310,2014-05-15 12:35:00
7:55 AM,46.4,42.8,87,30.03,10.0,NW,13.8,-,N/A,,Mostly Cloudy,310,2014-05-15 12:55:00
8:15 AM,48.2,42.8,82,30.03,10.0,NW,8.1,-,N/A,,Overcast,310,2014-05-15 13:15:00
8:35 AM,48.2,44.6,87,30.04,10.0,NW,10.4,-,N/A,,Scattered Clouds,310,2014-05-15 13:35:00
8:55 AM,48.2,42.8,82,30.05,10.0,NW,10.4,-,N/A,,Mostly Cloudy,310,2014-05-15 13:55:00
9:15 AM,50.0,42.8,76,30.04,10.0,WNW,11.5,-,N/A,,Scattered Clouds,300,2014-05-15 14:15:00
9:35 AM,50.0,44.6,82,30.05,10.0,WNW,8.1,-,N/A,,Scattered Clouds,300,2014-05-15 14:35:00
9:55 AM,51.8,44.6,76,30.05,10.0,WNW,9.2,-,N/A,,Scattered Clouds,300,2014-05-15 14:55:00
10:15 AM,53.6,46.4,77,30.05,10.0,West,10.4,16.1,N/A,,Mostly Cloudy,260,2014-05-15 15:15:00
10:35 AM,51.8,46.4,82,30.05,10.0,West,10.4,-,N/A,,Overcast,270,2014-05-15 15:35:00
10:55 AM,51.8,46.4,82,30.05,10.0,West,10.4,-,N/A,,Mostly Cloudy,280,2014-05-15 15:55:00
11:15 AM,51.8,46.4,82,30.05,10.0,West,10.4,-,N/A,,Overcast,280,2014-05-15 16:15:00
11:35 AM,51.8,44.6,76,30.05,10.0,West,8.1,-,N/A,,Overcast,270,2014-05-15 16:35:00
11:55 AM,53.6,44.6,72,30.05,10.0,West,9.2,-,N/A,,Overcast,270,2014-05-15 16:55:00
12:35 PM,51.8,46.4,82,30.05,10.0,West,11.5,-,N/A,,Overcast,280,2014-05-15 17:35:00
12:55 PM,50.0,46.4,87,30.06,10.0,West,12.7,-,N/A,Rain,Light Rain,280,2014-05-15 17:55:00
1:15 PM,48.2,46.4,93,30.05,10.0,WNW,13.8,-,N/A,,Light Drizzle,290,2014-05-15 18:15:00
2:15 PM,50.0,44.6,82,30.04,10.0,WNW,11.5,-,N/A,,Light Drizzle,290,2014-05-15 19:15:00
2:55 PM,50.0,44.6,82,30.03,10.0,West,8.1,-,N/A,,Overcast,280,2014-05-15 19:55:00
3:15 PM,51.8,44.6,76,30.03,10.0,WNW,12.7,-,N/A,,Overcast,300,2014-05-15 20:15:00
3:35 PM,51.8,44.6,76,30.03,10.0,WNW,13.8,19.6,N/A,,Overcast,290,2014-05-15 20:35:00
3:55 PM,51.8,42.8,71,30.03,10.0,WNW,10.4,-,N/A,,Overcast,300,2014-05-15 20:55:00
4:15 PM,51.8,42.8,71,30.03,10.0,WNW,10.4,-,N/A,,Overcast,290,2014-05-15 21:15:00
4:35 PM,53.6,41.0,62,30.02,10.0,NW,11.5,19.6,N/A,,Mostly Cloudy,310,2014-05-15 21:35:00
4:55 PM,53.6,42.8,67,30.02,10.0,WNW,6.9,-,N/A,,Mostly Cloudy,300,2014-05-15 21:55:00
5:15 PM,53.6,42.8,67,30.02,10.0,WNW,11.5,-,N/A,,Overcast,290,2014-05-15 22:15:00
5:35 PM,53.6,39.2,58,30.02,10.0,WNW,9.2,-,N/A,,Overcast,300,2014-05-15 22:35:00
5:55 PM,53.6,41.0,62,30.02,10.0,WNW,8.1,-,N/A,,Mostly Cloudy,290,2014-05-15 22:55:00
6:15 PM,53.6,37.4,54,30.02,10.0,West,11.5,18.4,N/A,,Mostly Cloudy,270,2014-05-15 23:15:00
6:35 PM,50.0,42.8,76,30.03,7.0,NW,12.7,23.0,N/A,Rain,Light Rain,310,2014-05-15 23:35:00
6:55 PM,51.8,42.8,71,30.03,10.0,West,12.7,-,N/A,,Mostly Cloudy,280,2014-05-15 23:55:00
7:15 PM,51.8,37.4,58,30.03,10.0,WNW,18.4,25.3,N/A,,Scattered Clouds,290,2014-05-16 00:15:00
7:35 PM,48.2,39.2,71,30.04,10.0,WNW,13.8,-,N/A,,Clear,300,2014-05-16 00:35:00
7:55 PM,46.4,42.8,87,30.05,5.0,NW,12.7,20.7,N/A,Rain,Light Rain,310,2014-05-16 00:55:00
8:15 PM,46.4,42.8,87,30.05,10.0,NW,11.5,-,N/A,,Overcast,310,2014-05-16 01:15:00
8:35 PM,46.4,42.8,87,30.05,10.0,NW,10.4,-,N/A,,Scattered Clouds,310,2014-05-16 01:35:00
8:55 PM,44.6,42.8,93,30.05,10.0,WNW,9.2,-,N/A,,Clear,290,2014-05-16 01:55:00
9:15 PM,46.4,41.0,81,30.06,10.0,WNW,9.2,17.3,N/A,,Clear,290,2014-05-16 02:15:00
9:35 PM,44.6,41.0,87,30.06,10.0,WNW,8.1,-,N/A,,Clear,300,2014-05-16 02:35:00
9:55 PM,44.6,41.0,87,30.06,10.0,WNW,6.9,-,N/A,,Clear,290,2014-05-16 02:55:00
10:15 PM,44.6,41.0,87,30.07,10.0,WNW,8.1,-,N/A,,Clear,290,2014-05-16 03:15:00
10:35 PM,42.8,41.0,93,30.07,10.0,WNW,8.1,-,N/A,,Scattered Clouds,290,2014-05-16 03:35:00
10:55 PM,44.6,42.8,93,30.06,10.0,West,8.1,-,N/A,,Overcast,280,2014-05-16 03:55:00
11:15 PM,44.6,42.8,93,30.06,10.0,West,10.4,-,N/A,,Overcast,280,2014-05-16 04:15:00
11:35 PM,44.6,42.8,93,30.05,10.0,WNW,9.2,-,N/A,,Overcast,290,2014-05-16 04:35:00
11:55 PM,44.6,42.8,93,30.05,10.0,WNW,9.2,-,N/A,,Overcast,290,2014-05-16 04:55:00